DELTA 1 DEB

基本信息
目录编号:
12427
目录名称:
DELTA 1 DEB
国际标识:
1978-026ET
轨道中心:
EARTH
物体状态:
在轨
发射日期:
1978-03-05 UTC
轨道信息
数据来源: 国际轨道数据
星历时间: 2026-09-11T07:43:23+0800
半长轴: 7121.888km
偏心率: 0.0100406
轨道倾角: 99.159°
近地点辐角: 58.663°
升交点赤经: 86.678°
平近点角: 98.600°
近地点: 672.242km
远地点: 815.26km
周期: 99.690分钟
每日圈数: 14.444753
详细信息
发射场:
AFWTR
轨道高度:
LEO
数据来源:
AOE Integration Group
参考系:
TEME
时间系统:
UTC
历元类型:
SGP4
2D轨道图
3D轨道图
轨道高度分析图
轨道倾角分析图
轨道综合分析图
查看轨道综合分析图